Weather History for St. Joseph, MO

Change the Weather History Date:

Sunday, July 21, 2013

  Actual Average Record
Temperature  
Mean Temperature 79 °F 77 °F  
Max Temperature 87 °F 87 °F 106 °F (1934)
Min Temperature 70 °F 67 °F 50 °F (1970)
Degree Days  
Heating Degree Days 0 0  
Month to date heating degree days 0 0  
Since 1 June heating degree days 15 8  
Since 1 July heating degree days 0 0  
Cooling Degree Days 14 12  
Month to date cooling degree days 280 250  
Year to date cooling degree days 681 630  
Since 1 June cooling degree days 555 517  
Growing Degree Days 28 (Base 50)    
Moisture  
Dew Point 70 °F    
Average Humidity 78    
Maximum Humidity 100    
Minimum Humidity 55    
Precipitation  
Precipitation 0.01 in 0.17 in 3.50 in (1990)
Month to date precipitation 0.19 3.40  
Year to date precipitation 16.33 20.53  
Sea Level Pressure  
Sea Level Pressure 29.86 in    
Wind  
Wind Speed 6 mph (SSW)    
Max Wind Speed 13 mph    
Max Gust Speed 15 mph    
Visibility 6 miles    
Events Fog    
T = Trace of Precipitation, MM = Missing Value Source: NWS Daily Summary

Daily Weather History Graph

Daily Weather History Graph

Search for Another Location

Airport:

Trip Planner

Search our weather history database for the weather conditions in past years. The results will help you decide how hot, cold, wet, or windy it might be!

Date:

Astronomy

Jul. 21, 2013 Rise Set
Actual Time 6:09 AM CDT 8:42 PM CDT
Civil Twilight 5:37 AM CDT 9:13 PM CDT
Nautical Twilight 4:59 AM CDT 9:52 PM CDT
Astronomical Twilight 4:15 AM CDT 10:35 PM CDT
Moon 7:41 PM CDT (7/21) 4:55 AM CDT (7/21)
Length of Visible Light 15h 35m
Length of Day
14h 33m
Waxing Gibbous, 98% of the Moon is Illuminated
Jul 21
Waxing Gibbous
Jul 22
Full
Jul 29
Last Quarter
Aug 6
New
Aug 14
First Quarter

Hourly Weather History & Observations

Time (CDT) Temp. Heat Index Dew Point Humidity Pressure Visibility Wind Dir Wind Speed Gust Speed Precip Events Conditions
12:53 AM 73.9 °F - 73.0 °F 97% 29.89 in 9.0 mi SE 4.6 mph - 0.01 in   Mostly Cloudy
1:53 AM 72.0 °F - 71.1 °F 97% 29.88 in 4.0 mi Calm Calm - N/A   Clear
2:11 AM 71.6 °F - 69.8 °F 94% 29.90 in 2.5 mi Calm Calm - N/A   Clear
2:19 AM 71.6 °F - 69.8 °F 94% 29.90 in 4.0 mi Calm Calm - N/A   Clear
2:53 AM 73.0 °F - 71.1 °F 93% 29.88 in 7.0 mi Calm Calm - N/A   Partly Cloudy
3:04 AM 71.6 °F - 71.6 °F 100% 29.90 in 0.8 mi Calm Calm - N/A   Scattered Clouds
3:14 AM 71.6 °F - 71.6 °F 100% 29.89 in 1.2 mi Calm Calm - N/A   Partly Cloudy
3:22 AM 71.6 °F - 71.6 °F 100% 29.89 in 0.5 mi South 4.6 mph - N/A Fog Fog
3:26 AM 71.6 °F - 71.6 °F 100% 29.89 in 0.8 mi South 4.6 mph - N/A   Mist
3:32 AM 71.6 °F - 71.6 °F 100% 29.90 in 1.2 mi South 4.6 mph - N/A   Partly Cloudy
3:36 AM 71.6 °F - 71.6 °F 100% 29.90 in 3.0 mi South 3.5 mph - N/A   Partly Cloudy
3:53 AM 72.0 °F - 71.1 °F 97% 29.86 in 4.0 mi SE 3.5 mph - N/A   Clear
4:02 AM 71.6 °F - 71.6 °F 100% 29.88 in 5.0 mi Calm Calm - N/A   Scattered Clouds
4:48 AM 69.8 °F - 69.8 °F 100% 29.87 in 1.8 mi West 4.6 mph - N/A   Mostly Cloudy
4:53 AM 70.0 °F - 69.1 °F 97% 29.85 in 0.5 mi West 3.5 mph - N/A Fog Fog
5:01 AM 69.8 °F - 69.8 °F 100% 29.87 in 0.2 mi Calm Calm - N/A Fog Fog
5:16 AM 69.8 °F - 69.8 °F 100% 29.87 in 0.5 mi Calm Calm - N/A Fog Fog
5:53 AM 70.0 °F - 69.1 °F 97% 29.87 in 0.5 mi WNW 3.5 mph - N/A Fog Fog
5:58 AM 69.8 °F - 69.8 °F 100% 29.89 in 1.0 mi WNW 3.5 mph - N/A   Overcast
6:04 AM 69.8 °F - 69.8 °F 100% 29.89 in 2.0 mi WNW 3.5 mph - N/A   Overcast
6:14 AM 69.8 °F - 69.8 °F 100% 29.89 in 3.0 mi WNW 3.5 mph - N/A   Mostly Cloudy
6:29 AM 71.6 °F - 69.8 °F 94% 29.90 in 2.5 mi Calm Calm - N/A   Mostly Cloudy
6:36 AM 69.8 °F - 69.8 °F 100% 29.90 in 3.0 mi Calm Calm - N/A   Mostly Cloudy
6:53 AM 71.1 °F - 70.0 °F 96% 29.87 in 8.0 mi Calm Calm - N/A   Overcast
7:53 AM 72.0 °F - 70.0 °F 93% 29.87 in 10.0 mi South 4.6 mph - 0.01 in   Clear
8:53 AM 73.9 °F - 70.0 °F 87% 29.87 in 10.0 mi Variable 4.6 mph - N/A   Clear
9:53 AM 75.9 °F - 71.1 °F 85% 29.89 in 10.0 mi SSW 8.1 mph - N/A   Clear
10:35 AM 77.0 °F - 69.8 °F 78% 29.92 in 10.0 mi SW 4.6 mph - N/A   Mostly Cloudy
10:53 AM 78.1 °F - 70.0 °F 76% 29.89 in 10.0 mi SSW 5.8 mph - N/A   Mostly Cloudy
11:53 AM 79.0 °F - 70.0 °F 74% 29.88 in 10.0 mi SSW 9.2 mph - N/A   Scattered Clouds
12:49 PM 80.6 °F 83.9 °F 69.8 °F 70% 29.89 in 10.0 mi SW 6.9 mph - N/A   Mostly Cloudy
12:53 PM 81.0 °F 84.4 °F 70.0 °F 69% 29.86 in 10.0 mi SSW 5.8 mph - N/A   Mostly Cloudy
1:24 PM 82.4 °F 87.2 °F 71.6 °F 70% 29.87 in 10.0 mi SSW 4.6 mph - N/A   Scattered Clouds
1:53 PM 84.0 °F 89.6 °F 72.0 °F 67% 29.83 in 10.0 mi South 11.5 mph - N/A   Mostly Cloudy
2:53 PM 82.9 °F 87.5 °F 71.1 °F 67% 29.83 in 10.0 mi Variable 3.5 mph - N/A   Overcast
3:53 PM 84.9 °F 89.4 °F 70.0 °F 61% 29.81 in 10.0 mi SSE 10.4 mph - N/A   Scattered Clouds
4:53 PM 87.1 °F 91.3 °F 69.1 °F 55% 29.78 in 10.0 mi SSW 8.1 mph - N/A   Partly Cloudy
5:53 PM 87.1 °F 92.0 °F 70.0 °F 57% 29.78 in 10.0 mi SSE 9.2 mph - N/A   Scattered Clouds
6:53 PM 84.0 °F 88.4 °F 70.0 °F 63% 29.79 in 10.0 mi SSE 6.9 mph - N/A   Partly Cloudy
7:53 PM 82.9 °F 86.5 °F 69.1 °F 63% 29.79 in 10.0 mi South 6.9 mph - N/A   Clear
8:53 PM 79.0 °F - 70.0 °F 74% 29.79 in 10.0 mi SSE 4.6 mph - N/A   Clear
9:53 PM 78.1 °F - 69.1 °F 74% 29.81 in 10.0 mi ESE 9.2 mph - N/A   Clear
10:53 PM 75.9 °F - 70.0 °F 82% 29.81 in 10.0 mi SE 8.1 mph - N/A   Clear
11:53 PM 75.0 °F - 71.1 °F 87% 29.83 in 10.0 mi SSE 9.2 mph - N/A   Scattered Clouds